SCP
0 0 0 0 0 0 0 0 0 0 0 0 0 0 0 0 0 0 0 0 0 0
0 0 0 0 0 0 0 0 0 0 0 0 0 0 0 0 0 0 0 0 0 0
0 0 0 0 0 0 0 0 0 0 0 0 0 0 0 0 0 0 0 0 0 0
0 1 0 0 0 0 0 0 0 0 0 0 0 0 0 0 0 0 0 0 0 0
0 0 0 0 0 0 0 0 0 0 0 0 0 0 0 0 0 0 0 0 0 0
0 0 0 0 0 0 0 0 0 0 0 0 0 0 0 0 0 0 0 0 0 0
-0 0 0 0 0 0 0 0 0 0 0 0 0 0 0 0 0 0 0 0 0 0
-0 0 0 0 0 0 1 0 0 0 0 0 0 0 0 0 0 0 0 0 0 0
0 0 0 0 0 0 0 0 0 0 0 0 0 0 0 0 0 0 0 0 0 0
0 0 0 0 0 0 0 0 0 0 0 0 0 0 0 0 0 0 0 0 0 0
0 0 0 0 0 0 0 0 0 0 0 0 0 0 0 0 0 0 0 0 0 -0
-0 0 0 -0 0 0 -0 0 0 0 0 0 0 0 0 0 0 0 0 0 0 -0
0 -0 0 -0 0 0 0 0 0 0 0 0 0 0 0 0 0 0 0 -0 -0 -0
0 -0 -0 0 -0 0 0 0 0 0 0 0 0 0 0 0 0 0 0 0 0 0
Wind_Speed_500mb
93 89 83 79 80 78 72 68 59 59 65 61 57 53 48 41 33 27 19 16 15 12
82 85 83 74 78 80 76 69 58 59 64 61 59 55 51 43 36 30 24 16 21 13
49 75 79 71 81 86 80 65 59 62 73 69 66 62 57 47 37 29 29 26 26 21
25 52 56 74 76 74 50 72 77 72 72 74 67 68 63 53 42 35 33 36 31 27
49 45 57 61 58 69 65 88 87 83 63 66 75 71 67 61 52 47 47 41 42 39
34 47 65 70 78 76 75 53 72 85 73 66 68 63 70 67 61 56 51 46 48 47
39 34 47 57 65 60 66 83 88 103 81 81 73 70 65 68 71 62 57 50 53 51
49 40 33 49 55 51 63 62 63 78 85 91 90 68 65 64 69 72 64 56 55 54
45 43 43 33 48 47 58 60 70 79 75 95 103 100 65 60 72 70 66 63 65 59
39 40 38 38 44 42 54 57 64 75 75 85 81 87 94 81 77 80 69 66 80 60
27 34 35 39 42 53 53 52 48 50 55 58 64 55 57 70 80 74 90 86 79 72
36 34 34 42 44 40 45 44 48 45 45 46 55 34 48 53 84 78 92 82 79 51
41 42 45 43 43 42 42 43 43 50 56 52 48 68 59 60 71 73 81 79 62 65
36 39 45 45 48 41 40 36 49 49 36 38 34 38 42 56 70 81 85 86 86 72
Wind_Direction_500mb
224 221 226 222 216 215 218 225 225 224 217 217 216 217 216 214 217 218 220 236 244 243
233 233 225 223 219 217 225 226 228 234 233 223 225 224 221 219 217 219 222 226 235 227
248 245 240 226 224 222 219 222 232 239 238 233 227 227 225 223 217 220 230 225 229 215
230 242 247 250 237 231 237 253 257 242 238 239 238 233 231 225 219 219 230 233 229 223
274 243 240 238 245 227 257 238 236 224 239 248 237 237 238 233 226 220 223 228 236 229
311 268 251 242 246 250 246 238 230 228 241 246 243 239 239 240 234 227 226 227 235 232
335 296 261 254 258 251 247 245 245 238 240 238 247 247 231 237 241 235 231 229 237 234
342 335 261 252 261 260 247 253 244 238 250 240 242 246 239 242 240 241 237 234 241 243
342 337 325 276 254 251 254 246 255 254 245 243 245 250 256 253 238 236 239 237 238 241
321 336 320 291 265 258 256 259 264 263 253 247 249 245 250 266 246 224 239 240 240 242
311 315 329 315 277 263 253 260 280 268 256 263 256 249 262 266 251 226 222 235 245 246
318 315 319 322 319 297 270 267 260 258 247 230 235 236 222 231 207 215 230 245 242 243
306 313 313 313 315 315 288 264 245 249 255 256 248 234 213 213 222 235 236 249 246 247
309 312 309 310 305 307 305 284 246 251 262 267 263 264 262 248 242 236 238 245 249 247
Wind_Speed_850mb
93 89 83 79 80 78 72 68 59 59 65 61 57 53 48 41 33 27 19 16 15 12
82 85 83 74 78 80 76 69 58 59 64 61 59 55 51 43 36 30 24 16 21 13
49 75 79 71 81 86 80 65 59 62 73 69 66 62 57 47 37 29 29 26 26 21
25 52 56 74 76 74 50 72 77 72 72 74 67 68 63 53 42 35 33 36 31 27
49 45 57 61 58 69 65 88 87 83 63 66 75 71 67 61 52 47 47 41 42 39
34 47 65 70 78 76 75 53 72 85 73 66 68 63 70 67 61 56 51 46 48 47
39 34 47 57 65 60 66 83 88 103 81 81 73 70 65 68 71 62 57 50 53 51
49 40 33 49 55 51 63 62 63 78 85 91 90 68 65 64 69 72 64 56 55 54
45 43 43 33 48 47 58 60 70 79 75 95 103 100 65 60 72 70 66 63 65 59
39 40 38 38 44 42 54 57 64 75 75 85 81 87 94 81 77 80 69 66 80 60
27 34 35 39 42 53 53 52 48 50 55 58 64 55 57 70 80 74 90 86 79 72
36 34 34 42 44 40 45 44 48 45 45 46 55 34 48 53 84 78 92 82 79 51
41 42 45 43 43 42 42 43 43 50 56 52 48 68 59 60 71 73 81 79 62 65
36 39 45 45 48 41 40 36 49 49 36 38 34 38 42 56 70 81 85 86 86 72
Wind_Direction_850mb
224 221 226 222 216 215 218 225 225 224 217 217 216 217 216 214 217 218 220 236 244 243
233 233 225 223 219 217 225 226 228 234 233 223 225 224 221 219 217 219 222 226 235 227
248 245 240 226 224 222 219 222 232 239 238 233 227 227 225 223 217 220 230 225 229 215
230 242 247 250 237 231 237 253 257 242 238 239 238 233 231 225 219 219 230 233 229 223
274 243 240 238 245 227 257 238 236 224 239 248 237 237 238 233 226 220 223 228 236 229
311 268 251 242 246 250 246 238 230 228 241 246 243 239 239 240 234 227 226 227 235 232
335 296 261 254 258 251 247 245 245 238 240 238 247 247 231 237 241 235 231 229 237 234
342 335 261 252 261 260 247 253 244 238 250 240 242 246 239 242 240 241 237 234 241 243
342 337 325 276 254 251 254 246 255 254 245 243 245 250 256 253 238 236 239 237 238 241
321 336 320 291 265 258 256 259 264 263 253 247 249 245 250 266 246 224 239 240 240 242
311 315 329 315 277 263 253 260 280 268 256 263 256 249 262 266 251 226 222 235 245 246
318 315 319 322 319 297 270 267 260 258 247 230 235 236 222 231 207 215 230 245 242 243
306 313 313 313 315 315 288 264 245 249 255 256 248 234 213 213 222 235 236 249 246 247
309 312 309 310 305 307 305 284 246 251 262 267 263 264 262 248 242 236 238 245 249 247